Year,Month,Day,Hour,Minute,Value (Times are PST for temperature in C)
2020,04,15,00,00,9.10
2020,04,15,00,01,9.10
2020,04,15,00,02,9.10
2020,04,15,00,03,9.10
2020,04,15,00,04,9.00
2020,04,15,00,05,9.00
2020,04,15,00,06,9.00
2020,04,15,00,07,9.00
2020,04,15,00,08,9.00
2020,04,15,00,09,9.00
2020,04,15,00,10,8.90
2020,04,15,00,11,8.90
2020,04,15,00,12,8.90
2020,04,15,00,13,8.90
2020,04,15,00,14,8.90
2020,04,15,00,15,8.90
2020,04,15,00,16,8.90
2020,04,15,00,17,8.90
2020,04,15,00,18,8.90
2020,04,15,00,19,8.90
2020,04,15,00,20,8.90
2020,04,15,00,21,8.90
2020,04,15,00,22,8.90
2020,04,15,00,23,8.90
2020,04,15,00,24,8.90
2020,04,15,00,25,8.80
2020,04,15,00,26,8.80
2020,04,15,00,27,8.90
2020,04,15,00,28,8.90
2020,04,15,00,29,8.90
2020,04,15,00,30,8.90
2020,04,15,00,31,9.00
2020,04,15,00,32,9.00
2020,04,15,00,33,9.00
2020,04,15,00,34,9.00
2020,04,15,00,35,9.00
2020,04,15,00,36,9.00
2020,04,15,00,37,9.00
2020,04,15,00,38,9.00
2020,04,15,00,39,9.00
2020,04,15,00,40,9.00
2020,04,15,00,41,9.00
2020,04,15,00,42,9.00
2020,04,15,00,43,9.00
2020,04,15,00,44,9.00
2020,04,15,00,45,9.00
2020,04,15,00,46,9.00
2020,04,15,00,47,9.00
2020,04,15,00,48,8.90
2020,04,15,00,49,8.90
2020,04,15,00,50,8.90
2020,04,15,00,51,8.90
2020,04,15,00,52,8.90
2020,04,15,00,53,8.90
2020,04,15,00,54,8.90
2020,04,15,00,55,8.90
2020,04,15,00,56,8.90
2020,04,15,00,57,8.90
2020,04,15,00,58,8.90
2020,04,15,00,59,8.90
2020,04,15,01,00,8.90
2020,04,15,01,01,8.90
2020,04,15,01,02,8.90
2020,04,15,01,03,8.90
2020,04,15,01,04,8.80
2020,04,15,01,05,8.80
2020,04,15,01,06,8.80
2020,04,15,01,07,8.90
2020,04,15,01,08,8.90
2020,04,15,01,09,8.90
2020,04,15,01,10,8.90
2020,04,15,01,11,8.90
2020,04,15,01,12,8.90
2020,04,15,01,13,8.90
2020,04,15,01,14,8.80
2020,04,15,01,15,8.80
2020,04,15,01,16,8.80
2020,04,15,01,17,8.80
2020,04,15,01,18,8.80
2020,04,15,01,19,8.80
2020,04,15,01,20,8.90
2020,04,15,01,21,8.90
2020,04,15,01,22,8.90
2020,04,15,01,23,9.00
2020,04,15,01,24,9.00
2020,04,15,01,25,9.00
2020,04,15,01,26,9.00
2020,04,15,01,27,8.90
2020,04,15,01,28,8.90
2020,04,15,01,29,8.90
2020,04,15,01,30,8.90
2020,04,15,01,31,8.90
2020,04,15,01,32,8.90
2020,04,15,01,33,8.90
2020,04,15,01,34,8.90
2020,04,15,01,35,8.90
2020,04,15,01,36,8.80
2020,04,15,01,37,8.80
2020,04,15,01,38,8.80
2020,04,15,01,39,8.80
2020,04,15,01,40,8.80
2020,04,15,01,41,8.80
2020,04,15,01,42,8.80
2020,04,15,01,43,8.80
2020,04,15,01,44,8.70
2020,04,15,01,45,8.80
2020,04,15,01,46,8.80
2020,04,15,01,47,8.80
2020,04,15,01,48,8.80
2020,04,15,01,49,8.80
2020,04,15,01,50,8.80
2020,04,15,01,51,8.70
2020,04,15,01,52,8.70
2020,04,15,01,53,8.80
2020,04,15,01,54,8.80
2020,04,15,01,55,8.80
2020,04,15,01,56,8.80
2020,04,15,01,57,8.80
2020,04,15,01,58,8.80
2020,04,15,01,59,8.80
2020,04,15,02,00,8.80
2020,04,15,02,01,8.80
2020,04,15,02,02,8.80
2020,04,15,02,03,8.80
2020,04,15,02,04,8.80
2020,04,15,02,05,8.80
2020,04,15,02,06,8.80
2020,04,15,02,07,8.80
2020,04,15,02,08,8.80
2020,04,15,02,09,8.70
2020,04,15,02,10,8.70
2020,04,15,02,11,8.70
2020,04,15,02,12,8.70
2020,04,15,02,13,8.70
2020,04,15,02,14,8.80
2020,04,15,02,15,8.80
2020,04,15,02,16,8.80
2020,04,15,02,17,8.80
2020,04,15,02,18,8.90
2020,04,15,02,19,8.90
2020,04,15,02,20,8.90
2020,04,15,02,21,8.80
2020,04,15,02,22,8.80
2020,04,15,02,23,8.80
2020,04,15,02,24,8.80
2020,04,15,02,25,8.80
2020,04,15,02,26,8.80
2020,04,15,02,27,8.90
2020,04,15,02,28,8.90
2020,04,15,02,29,9.00
2020,04,15,02,30,9.00
2020,04,15,02,31,9.10
2020,04,15,02,32,9.10
2020,04,15,02,33,9.20
2020,04,15,02,34,9.20
2020,04,15,02,35,9.30
2020,04,15,02,36,9.30
2020,04,15,02,37,9.30
2020,04,15,02,38,9.30
2020,04,15,02,39,9.30
2020,04,15,02,40,9.30
2020,04,15,02,41,9.30
2020,04,15,02,42,9.30
2020,04,15,02,43,9.30
2020,04,15,02,44,9.20
2020,04,15,02,45,9.20
2020,04,15,02,46,9.20
2020,04,15,02,47,9.20
2020,04,15,02,48,9.20
2020,04,15,02,49,9.30
2020,04,15,02,50,9.30
2020,04,15,02,51,9.30
2020,04,15,02,52,9.30
2020,04,15,02,53,9.30
2020,04,15,02,54,9.30
2020,04,15,02,55,9.30
2020,04,15,02,56,9.30
2020,04,15,02,57,9.40
2020,04,15,02,58,9.40
2020,04,15,02,59,9.40
2020,04,15,03,00,9.40
2020,04,15,03,01,9.30
2020,04,15,03,02,9.30
2020,04,15,03,03,9.40
2020,04,15,03,04,9.30
2020,04,15,03,05,9.30
2020,04,15,03,06,9.30
2020,04,15,03,07,9.30
2020,04,15,03,08,9.30
2020,04,15,03,09,9.30
2020,04,15,03,10,9.30
2020,04,15,03,11,9.30
2020,04,15,03,12,9.30
2020,04,15,03,13,9.30
2020,04,15,03,14,9.30
2020,04,15,03,15,9.20
2020,04,15,03,16,9.20
2020,04,15,03,17,9.20
2020,04,15,03,18,9.20
2020,04,15,03,19,9.20
2020,04,15,03,20,9.20
2020,04,15,03,21,9.30
2020,04,15,03,22,9.30
2020,04,15,03,23,9.30
2020,04,15,03,24,9.30
2020,04,15,03,25,9.30
2020,04,15,03,26,9.30
2020,04,15,03,27,9.30
2020,04,15,03,28,9.30
2020,04,15,03,29,9.30
2020,04,15,03,30,9.30
2020,04,15,03,31,9.40
2020,04,15,03,32,9.40
2020,04,15,03,33,9.40
2020,04,15,03,34,9.50
2020,04,15,03,35,9.50
2020,04,15,03,36,9.60
2020,04,15,03,37,9.70
2020,04,15,03,38,9.70
2020,04,15,03,39,9.80
2020,04,15,03,40,9.80
2020,04,15,03,41,9.90
2020,04,15,03,42,9.90
2020,04,15,03,43,10.00
2020,04,15,03,44,10.10
2020,04,15,03,45,10.10
2020,04,15,03,46,10.20
2020,04,15,03,47,10.20
2020,04,15,03,48,10.20
2020,04,15,03,49,10.20
2020,04,15,03,50,10.30
2020,04,15,03,51,10.30
2020,04,15,03,52,10.30
2020,04,15,03,53,10.30
2020,04,15,03,54,10.30
2020,04,15,03,55,10.40
2020,04,15,03,56,10.40
2020,04,15,03,57,10.40
2020,04,15,03,58,10.40
2020,04,15,03,59,10.40
2020,04,15,04,00,10.40
2020,04,15,04,01,10.40
2020,04,15,04,02,10.40
2020,04,15,04,03,10.40
2020,04,15,04,04,10.40
2020,04,15,04,05,10.40
2020,04,15,04,06,10.40
2020,04,15,04,07,10.40
2020,04,15,04,08,10.40
2020,04,15,04,09,10.40
2020,04,15,04,10,10.40
2020,04,15,04,11,10.40
2020,04,15,04,12,10.40
2020,04,15,04,13,10.40
2020,04,15,04,14,10.40
2020,04,15,04,15,10.40
2020,04,15,04,16,10.40
2020,04,15,04,17,10.40
2020,04,15,04,18,10.40
2020,04,15,04,19,10.40
2020,04,15,04,20,10.40
2020,04,15,04,21,10.40
2020,04,15,04,22,10.30
2020,04,15,04,23,10.30
2020,04,15,04,24,10.30
2020,04,15,04,25,10.30
2020,04,15,04,26,10.30
2020,04,15,04,27,10.30
2020,04,15,04,28,10.30
2020,04,15,04,29,10.30
2020,04,15,04,30,10.20
2020,04,15,04,31,10.20
2020,04,15,04,32,10.20
2020,04,15,04,33,10.20
2020,04,15,04,34,10.20
2020,04,15,04,35,10.20
2020,04,15,04,36,10.20
2020,04,15,04,37,10.20
2020,04,15,04,38,10.20
2020,04,15,04,39,10.20
2020,04,15,04,40,10.20
2020,04,15,04,41,10.20
2020,04,15,04,42,10.20
2020,04,15,04,43,10.20
2020,04,15,04,44,10.20
2020,04,15,04,45,10.20
2020,04,15,04,46,10.20
2020,04,15,04,47,10.20
2020,04,15,04,48,10.20
2020,04,15,04,49,10.20
2020,04,15,04,50,10.20
2020,04,15,04,51,10.20
2020,04,15,04,52,10.20
2020,04,15,04,53,10.20
2020,04,15,04,54,10.20
2020,04,15,04,55,10.20
2020,04,15,04,56,10.20
2020,04,15,04,57,10.20
2020,04,15,04,58,10.20
2020,04,15,04,59,10.20
2020,04,15,05,00,10.10
2020,04,15,05,01,10.10
2020,04,15,05,02,10.10
2020,04,15,05,03,10.10
2020,04,15,05,04,10.10
2020,04,15,05,05,10.10
2020,04,15,05,06,10.10
2020,04,15,05,07,10.10
2020,04,15,05,08,10.10
2020,04,15,05,09,10.10
2020,04,15,05,10,10.10
2020,04,15,05,11,10.10
2020,04,15,05,12,10.10
2020,04,15,05,13,10.10
2020,04,15,05,14,10.10
2020,04,15,05,15,10.10
2020,04,15,05,16,10.10
2020,04,15,05,17,10.00
2020,04,15,05,18,10.10
2020,04,15,05,19,10.00
2020,04,15,05,20,10.00
2020,04,15,05,21,10.00
2020,04,15,05,22,10.00
2020,04,15,05,23,10.00
2020,04,15,05,24,10.00
2020,04,15,05,25,10.00
2020,04,15,05,26,10.00
2020,04,15,05,27,9.90
2020,04,15,05,28,9.90
2020,04,15,05,29,9.90
2020,04,15,05,30,9.90
2020,04,15,05,31,9.90
2020,04,15,05,32,9.80
2020,04,15,05,33,9.80
2020,04,15,05,34,9.80
2020,04,15,05,35,9.80
2020,04,15,05,36,9.80
2020,04,15,05,37,9.80
2020,04,15,05,38,9.80
2020,04,15,05,39,9.80
2020,04,15,05,40,9.70
2020,04,15,05,41,9.70
2020,04,15,05,42,9.70
2020,04,15,05,43,9.70
2020,04,15,05,44,9.70
2020,04,15,05,45,9.70
2020,04,15,05,46,9.70
2020,04,15,05,47,9.70
2020,04,15,05,48,9.70
2020,04,15,05,49,9.70
2020,04,15,05,50,9.70
2020,04,15,05,51,9.70
2020,04,15,05,52,9.70
2020,04,15,05,53,9.70
2020,04,15,05,54,9.70
2020,04,15,05,55,9.70
2020,04,15,05,56,9.70
2020,04,15,05,57,9.70
2020,04,15,05,58,9.70
2020,04,15,05,59,9.70
2020,04,15,06,00,9.70
2020,04,15,06,01,9.70
2020,04,15,06,02,9.70
2020,04,15,06,03,9.80
2020,04,15,06,04,9.80
2020,04,15,06,05,9.80
2020,04,15,06,06,9.80
2020,04,15,06,07,9.80
2020,04,15,06,08,9.80
2020,04,15,06,09,9.80
2020,04,15,06,10,9.80
2020,04,15,06,11,9.80
2020,04,15,06,12,9.80
2020,04,15,06,13,9.80
2020,04,15,06,14,9.80
2020,04,15,06,15,9.80
2020,04,15,06,16,9.80
2020,04,15,06,17,9.80
2020,04,15,06,18,9.80
2020,04,15,06,19,9.70
2020,04,15,06,20,9.70
2020,04,15,06,21,9.70
2020,04,15,06,22,9.70
2020,04,15,06,23,9.70
2020,04,15,06,24,9.70
2020,04,15,06,25,9.70
2020,04,15,06,26,9.70
2020,04,15,06,27,9.70
2020,04,15,06,28,9.70
2020,04,15,06,29,9.70
2020,04,15,06,30,9.70
2020,04,15,06,31,9.70
2020,04,15,06,32,9.70
2020,04,15,06,33,9.70
2020,04,15,06,34,9.70
2020,04,15,06,35,9.70
2020,04,15,06,36,9.70
2020,04,15,06,37,9.70
2020,04,15,06,38,9.70
2020,04,15,06,39,9.70
2020,04,15,06,40,9.80
2020,04,15,06,41,9.80
2020,04,15,06,42,9.80
2020,04,15,06,43,9.80
2020,04,15,06,44,9.80
2020,04,15,06,45,9.80
2020,04,15,06,46,9.70
2020,04,15,06,47,9.70
2020,04,15,06,48,9.70
2020,04,15,06,49,9.70
2020,04,15,06,50,9.70
2020,04,15,06,51,9.70
2020,04,15,06,52,9.70
2020,04,15,06,53,9.70
2020,04,15,06,54,9.70
2020,04,15,06,55,9.70
2020,04,15,06,56,9.70
2020,04,15,06,57,9.70
2020,04,15,06,58,9.70
2020,04,15,06,59,9.70
2020,04,15,07,00,9.80
2020,04,15,07,01,9.80
2020,04,15,07,02,9.80
2020,04,15,07,03,9.80
2020,04,15,07,04,9.80
2020,04,15,07,05,9.80
2020,04,15,07,06,9.90
2020,04,15,07,07,9.90
2020,04,15,07,08,9.90
2020,04,15,07,09,9.90
2020,04,15,07,10,9.90
2020,04,15,07,11,10.00
2020,04,15,07,12,10.00
2020,04,15,07,13,10.00
2020,04,15,07,14,10.10
2020,04,15,07,15,10.10
2020,04,15,07,16,10.10
2020,04,15,07,17,10.10
2020,04,15,07,18,10.10
2020,04,15,07,19,10.20
2020,04,15,07,20,10.20
2020,04,15,07,21,10.20
2020,04,15,07,22,10.20
2020,04,15,07,23,10.20
2020,04,15,07,24,10.20
2020,04,15,07,25,10.30
2020,04,15,07,26,10.30
2020,04,15,07,27,10.30
2020,04,15,07,28,10.30
2020,04,15,07,29,10.30
2020,04,15,07,30,10.30
2020,04,15,07,31,10.40
2020,04,15,07,32,10.40
2020,04,15,07,33,10.40
2020,04,15,07,34,10.40
2020,04,15,07,35,10.40
2020,04,15,07,36,10.40
2020,04,15,07,37,10.50
2020,04,15,07,38,10.50
2020,04,15,07,39,10.50
2020,04,15,07,40,10.60
2020,04,15,07,41,10.60
2020,04,15,07,42,10.60
2020,04,15,07,43,10.60
2020,04,15,07,44,10.60
2020,04,15,07,45,10.60
2020,04,15,07,46,10.60
2020,04,15,07,47,10.60
2020,04,15,07,48,10.70
2020,04,15,07,49,10.70
2020,04,15,07,50,10.70
2020,04,15,07,51,10.70
2020,04,15,07,52,10.70
2020,04,15,07,53,10.70
2020,04,15,07,54,10.80
2020,04,15,07,55,10.80
2020,04,15,07,56,10.80
2020,04,15,07,57,10.80
2020,04,15,07,58,10.80
2020,04,15,07,59,10.90
2020,04,15,08,00,10.90
2020,04,15,08,01,10.90
2020,04,15,08,02,10.90
2020,04,15,08,03,11.00
2020,04,15,08,04,11.00
2020,04,15,08,05,11.00
2020,04,15,08,06,11.00
2020,04,15,08,07,11.00
2020,04,15,08,08,11.00
2020,04,15,08,09,11.00
2020,04,15,08,10,11.10
2020,04,15,08,11,11.10
2020,04,15,08,12,11.20
2020,04,15,08,13,11.20
2020,04,15,08,14,11.20
2020,04,15,08,15,11.30
2020,04,15,08,16,11.30
2020,04,15,08,17,11.30
2020,04,15,08,18,11.40
2020,04,15,08,19,11.50
2020,04,15,08,20,11.50
2020,04,15,08,21,11.60
2020,04,15,08,22,11.60
2020,04,15,08,23,11.60
2020,04,15,08,24,11.60
2020,04,15,08,25,11.60
2020,04,15,08,26,11.60
2020,04,15,08,27,11.60
2020,04,15,08,28,11.60
2020,04,15,08,29,11.70
2020,04,15,08,30,11.70
2020,04,15,08,31,11.70
2020,04,15,08,32,11.70
2020,04,15,08,33,11.70
2020,04,15,08,34,11.70
2020,04,15,08,35,11.70
2020,04,15,08,36,11.70
2020,04,15,08,37,11.80
2020,04,15,08,38,11.80
2020,04,15,08,39,11.80
2020,04,15,08,40,11.80
2020,04,15,08,41,11.90
2020,04,15,08,42,11.90
2020,04,15,08,43,11.90
2020,04,15,08,44,11.90
2020,04,15,08,45,11.90
2020,04,15,08,46,11.90
2020,04,15,08,47,11.90
2020,04,15,08,48,11.90
2020,04,15,08,49,11.90
2020,04,15,08,50,11.90
2020,04,15,08,51,11.80
2020,04,15,08,52,11.80
2020,04,15,08,53,11.80
2020,04,15,08,54,11.80
2020,04,15,08,55,11.80
2020,04,15,08,56,11.80
2020,04,15,08,57,11.80
2020,04,15,08,58,11.70
2020,04,15,08,59,11.70
2020,04,15,09,00,11.70
2020,04,15,09,01,11.70
2020,04,15,09,02,11.70
2020,04,15,09,03,11.70
2020,04,15,09,04,11.70
2020,04,15,09,05,11.70
2020,04,15,09,06,11.70
2020,04,15,09,07,11.70
2020,04,15,09,08,11.70
2020,04,15,09,09,11.60
2020,04,15,09,10,11.60
2020,04,15,09,11,11.60
2020,04,15,09,12,11.70
2020,04,15,09,13,11.70
2020,04,15,09,14,11.70
2020,04,15,09,15,11.80
2020,04,15,09,16,11.80
2020,04,15,09,17,11.80
2020,04,15,09,18,11.90
2020,04,15,09,19,11.90
2020,04,15,09,20,11.90
2020,04,15,09,21,11.90
2020,04,15,09,22,11.90
2020,04,15,09,23,11.90
2020,04,15,09,24,12.00
2020,04,15,09,25,12.10
2020,04,15,09,26,12.10
2020,04,15,09,27,12.10
2020,04,15,09,28,12.10
2020,04,15,09,29,12.10
2020,04,15,09,30,12.10
2020,04,15,09,31,12.10
2020,04,15,09,32,12.20
2020,04,15,09,33,12.20
2020,04,15,09,34,12.20
2020,04,15,09,35,12.20
2020,04,15,09,36,12.20
2020,04,15,09,37,12.20
2020,04,15,09,38,12.20
2020,04,15,09,39,12.20
2020,04,15,09,40,12.20
2020,04,15,09,41,12.20
2020,04,15,09,42,12.20
2020,04,15,09,43,12.20
2020,04,15,09,44,12.20
2020,04,15,09,45,12.20
2020,04,15,09,46,12.20
2020,04,15,09,47,12.20
2020,04,15,09,48,12.20
2020,04,15,09,49,12.30
2020,04,15,09,50,12.30
2020,04,15,09,51,12.30
2020,04,15,09,52,12.30
2020,04,15,09,53,12.30
2020,04,15,09,54,12.30
2020,04,15,09,55,12.30
2020,04,15,09,56,12.30
2020,04,15,09,57,12.30
2020,04,15,09,58,12.30
2020,04,15,09,59,12.30
2020,04,15,10,00,12.30
2020,04,15,10,01,12.30
2020,04,15,10,02,12.30
2020,04,15,10,03,12.30
2020,04,15,10,04,12.30
2020,04,15,10,05,12.40
2020,04,15,10,06,12.50
2020,04,15,10,07,12.50
2020,04,15,10,08,12.60
2020,04,15,10,09,12.60
2020,04,15,10,10,12.60
2020,04,15,10,11,12.60
2020,04,15,10,12,12.60
2020,04,15,10,13,12.60
2020,04,15,10,14,12.60
2020,04,15,10,15,12.60
2020,04,15,10,16,12.60
2020,04,15,10,17,12.60
2020,04,15,10,18,12.60
2020,04,15,10,19,12.70
2020,04,15,10,20,12.70
2020,04,15,10,21,12.70
2020,04,15,10,22,12.80
2020,04,15,10,23,12.80
2020,04,15,10,24,12.80
2020,04,15,10,25,12.80
2020,04,15,10,26,12.80
2020,04,15,10,27,12.80
2020,04,15,10,28,12.80
2020,04,15,10,29,12.80
2020,04,15,10,30,12.80
2020,04,15,10,31,12.80
2020,04,15,10,32,12.80
2020,04,15,10,33,12.90
2020,04,15,10,34,12.90
2020,04,15,10,35,12.90
2020,04,15,10,36,12.90
2020,04,15,10,37,13.00
2020,04,15,10,38,13.00
2020,04,15,10,39,12.90
2020,04,15,10,40,12.90
2020,04,15,10,41,12.90
2020,04,15,10,42,12.90
2020,04,15,10,43,12.90
2020,04,15,10,44,12.90
2020,04,15,10,45,12.90
2020,04,15,10,46,12.90
2020,04,15,10,47,12.90
2020,04,15,10,48,12.90
2020,04,15,10,49,13.00
2020,04,15,10,50,13.00
2020,04,15,10,51,13.00
2020,04,15,10,52,13.00
2020,04,15,10,53,12.90
2020,04,15,10,54,12.90
2020,04,15,10,55,12.90
2020,04,15,10,56,12.90
2020,04,15,10,57,12.90
2020,04,15,10,58,12.80
2020,04,15,10,59,12.80
2020,04,15,11,00,12.70
2020,04,15,11,01,12.70
2020,04,15,11,02,12.70
2020,04,15,11,03,12.60
2020,04,15,11,04,12.60
2020,04,15,11,05,12.60
2020,04,15,11,06,12.60
2020,04,15,11,07,12.60
2020,04,15,11,08,12.60
2020,04,15,11,09,12.70
2020,04,15,11,10,12.70
2020,04,15,11,11,12.80
2020,04,15,11,12,12.80
2020,04,15,11,13,12.90
2020,04,15,11,14,12.90
2020,04,15,11,15,12.90
2020,04,15,11,16,12.90
2020,04,15,11,17,13.00
2020,04,15,11,18,13.10
2020,04,15,11,19,13.10
2020,04,15,11,20,13.10
2020,04,15,11,21,13.10
2020,04,15,11,22,13.20
2020,04,15,11,23,13.10
2020,04,15,11,24,13.10
2020,04,15,11,25,13.10
2020,04,15,11,26,13.10
2020,04,15,11,27,13.00
2020,04,15,11,28,13.00
2020,04,15,11,29,12.90
2020,04,15,11,30,12.90
2020,04,15,11,31,12.80
2020,04,15,11,32,12.70
2020,04,15,11,33,12.70
2020,04,15,11,34,12.60
2020,04,15,11,35,12.70
2020,04,15,11,36,12.70
2020,04,15,11,37,12.80
2020,04,15,11,38,12.90
2020,04,15,11,39,12.80
2020,04,15,11,40,12.80
2020,04,15,11,41,12.80
2020,04,15,11,42,12.80
2020,04,15,11,43,12.80
2020,04,15,11,44,12.90
2020,04,15,11,45,12.90
2020,04,15,11,46,12.90
2020,04,15,11,47,12.80
2020,04,15,11,48,12.90
2020,04,15,11,49,12.90
2020,04,15,11,50,12.90
2020,04,15,11,51,13.00
2020,04,15,11,52,13.10
2020,04,15,11,53,13.00
2020,04,15,11,54,13.10
2020,04,15,11,55,13.20
2020,04,15,11,56,13.20
2020,04,15,11,57,13.20
2020,04,15,11,58,13.30
2020,04,15,11,59,13.40
2020,04,15,12,00,13.40
2020,04,15,12,01,13.50
2020,04,15,12,02,13.40
2020,04,15,12,03,13.40
2020,04,15,12,04,13.40
2020,04,15,12,05,13.40
2020,04,15,12,06,13.50
2020,04,15,12,07,13.40
2020,04,15,12,08,13.40
2020,04,15,12,09,13.30
2020,04,15,12,10,13.20
2020,04,15,12,11,13.20
2020,04,15,12,12,13.30
2020,04,15,12,13,13.30
2020,04,15,12,14,13.40
2020,04,15,12,15,13.50
2020,04,15,12,16,13.50
2020,04,15,12,17,13.50
2020,04,15,12,18,13.50
2020,04,15,12,19,13.50
2020,04,15,12,20,13.40
2020,04,15,12,21,13.40
2020,04,15,12,22,13.40
2020,04,15,12,23,13.30
2020,04,15,12,24,13.20
2020,04,15,12,25,13.20
2020,04,15,12,26,13.20
2020,04,15,12,27,13.20
2020,04,15,12,28,13.10
2020,04,15,12,29,13.10
2020,04,15,12,30,13.10
2020,04,15,12,31,13.20
2020,04,15,12,32,13.30
2020,04,15,12,33,13.40
2020,04,15,12,34,13.50
2020,04,15,12,35,13.50
2020,04,15,12,36,13.60
2020,04,15,12,37,13.60
2020,04,15,12,38,13.70
2020,04,15,12,39,13.70
2020,04,15,12,40,13.70
2020,04,15,12,41,13.70
2020,04,15,12,42,13.70
2020,04,15,12,43,13.70
2020,04,15,12,44,13.70
2020,04,15,12,45,13.70
2020,04,15,12,46,13.70
2020,04,15,12,47,13.70
2020,04,15,12,48,13.80
2020,04,15,12,49,13.80
2020,04,15,12,50,13.90
2020,04,15,12,51,14.00
2020,04,15,12,52,14.10
2020,04,15,12,53,14.20
2020,04,15,12,54,14.30
2020,04,15,12,55,14.40
2020,04,15,12,56,14.40
2020,04,15,12,57,14.30
2020,04,15,12,58,14.30
2020,04,15,12,59,14.30
2020,04,15,13,00,14.30
2020,04,15,13,01,14.40
2020,04,15,13,02,14.50
2020,04,15,13,03,14.50
2020,04,15,13,04,14.50
2020,04,15,13,05,14.50
2020,04,15,13,06,14.60
2020,04,15,13,07,14.70
2020,04,15,13,08,14.80
2020,04,15,13,09,14.80
2020,04,15,13,10,14.90
2020,04,15,13,11,15.00
2020,04,15,13,12,15.00
2020,04,15,13,13,15.10
2020,04,15,13,14,15.00
2020,04,15,13,15,14.90
2020,04,15,13,16,14.80
2020,04,15,13,17,14.80
2020,04,15,13,18,14.70
2020,04,15,13,19,14.60
2020,04,15,13,20,14.60
2020,04,15,13,21,14.50
2020,04,15,13,22,14.50
2020,04,15,13,23,14.60
2020,04,15,13,24,14.70
2020,04,15,13,25,14.80
2020,04,15,13,26,14.90
2020,04,15,13,27,15.00
2020,04,15,13,28,15.10
2020,04,15,13,29,15.10
2020,04,15,13,30,15.10
2020,04,15,13,31,15.10
2020,04,15,13,32,15.10
2020,04,15,13,33,15.20
2020,04,15,13,34,15.20
2020,04,15,13,35,15.20
2020,04,15,13,36,15.20
2020,04,15,13,37,15.20
2020,04,15,13,38,15.20
2020,04,15,13,39,15.30
2020,04,15,13,40,15.30
2020,04,15,13,41,15.40
2020,04,15,13,42,15.40
2020,04,15,13,43,15.50
2020,04,15,13,44,15.50
2020,04,15,13,45,15.50
2020,04,15,13,46,15.50
2020,04,15,13,47,15.50
2020,04,15,13,48,15.50
2020,04,15,13,49,15.50
2020,04,15,13,50,15.60
2020,04,15,13,51,15.60
2020,04,15,13,52,15.60
2020,04,15,13,53,15.60
2020,04,15,13,54,15.70
2020,04,15,13,55,15.80
2020,04,15,13,56,15.80
2020,04,15,13,57,15.80
2020,04,15,13,58,15.80
2020,04,15,13,59,15.80
2020,04,15,14,00,15.80
2020,04,15,14,01,15.70
2020,04,15,14,02,15.70
2020,04,15,14,03,15.70
2020,04,15,14,04,15.70
2020,04,15,14,05,15.70
2020,04,15,14,06,15.70
2020,04,15,14,07,15.70
2020,04,15,14,08,15.70
2020,04,15,14,09,15.70
2020,04,15,14,10,15.70
2020,04,15,14,11,15.70
2020,04,15,14,12,15.60
2020,04,15,14,13,15.50
2020,04,15,14,14,15.50
2020,04,15,14,15,15.60
2020,04,15,14,16,15.60
2020,04,15,14,17,15.70
2020,04,15,14,18,15.80
2020,04,15,14,19,15.80
2020,04,15,14,20,15.80
2020,04,15,14,21,15.70
2020,04,15,14,22,15.70
2020,04,15,14,23,15.70
2020,04,15,14,24,15.70
2020,04,15,14,25,15.80
2020,04,15,14,26,15.80
2020,04,15,14,27,15.80
2020,04,15,14,28,15.80
2020,04,15,14,29,15.80
2020,04,15,14,30,15.80
2020,04,15,14,31,15.80
2020,04,15,14,32,15.90
2020,04,15,14,33,16.00
2020,04,15,14,34,16.00
2020,04,15,14,35,16.10
2020,04,15,14,36,16.10
2020,04,15,14,37,16.10
2020,04,15,14,38,16.20
2020,04,15,14,39,16.20
2020,04,15,14,40,16.20
2020,04,15,14,41,16.30
2020,04,15,14,42,16.30
2020,04,15,14,43,16.30
2020,04,15,14,44,16.30
2020,04,15,14,45,16.30
2020,04,15,14,46,16.30
2020,04,15,14,47,16.30
2020,04,15,14,48,16.30
2020,04,15,14,49,16.20
2020,04,15,14,50,16.20
2020,04,15,14,51,16.20
2020,04,15,14,52,16.20
2020,04,15,14,53,16.20
2020,04,15,14,54,16.20
2020,04,15,14,55,16.30
2020,04,15,14,56,16.40
2020,04,15,14,57,16.50
2020,04,15,14,58,16.60
2020,04,15,14,59,16.60
2020,04,15,15,00,16.60
2020,04,15,15,01,16.70
2020,04,15,15,02,16.70
2020,04,15,15,03,16.70
2020,04,15,15,04,16.70
2020,04,15,15,05,16.70
2020,04,15,15,06,16.70
2020,04,15,15,07,16.70
2020,04,15,15,08,16.60
2020,04,15,15,09,16.50
2020,04,15,15,10,16.50
2020,04,15,15,11,16.40
2020,04,15,15,12,16.40
2020,04,15,15,13,16.30
2020,04,15,15,14,16.40
2020,04,15,15,15,16.40
2020,04,15,15,16,16.50
2020,04,15,15,17,16.60
2020,04,15,15,18,16.70
2020,04,15,15,19,16.70
2020,04,15,15,20,16.80
2020,04,15,15,21,16.90
2020,04,15,15,22,17.00
2020,04,15,15,23,17.00
2020,04,15,15,24,17.00
2020,04,15,15,25,17.00
2020,04,15,15,26,17.00
2020,04,15,15,27,17.10
2020,04,15,15,28,17.10
2020,04,15,15,29,17.20
2020,04,15,15,30,17.30
2020,04,15,15,31,17.30
2020,04,15,15,32,17.40
2020,04,15,15,33,17.40
2020,04,15,15,34,17.50
2020,04,15,15,35,17.60
2020,04,15,15,36,17.60
2020,04,15,15,37,17.70
2020,04,15,15,38,17.70
2020,04,15,15,39,17.70
2020,04,15,15,40,17.80
2020,04,15,15,41,17.80
2020,04,15,15,42,17.80
2020,04,15,15,43,17.80
2020,04,15,15,44,17.90
2020,04,15,15,45,17.90
2020,04,15,15,46,17.90
2020,04,15,15,47,17.90
2020,04,15,15,48,17.90
2020,04,15,15,49,17.90
2020,04,15,15,50,18.00
2020,04,15,15,51,18.10
2020,04,15,15,52,18.20
2020,04,15,15,53,18.20
2020,04,15,15,54,18.30
2020,04,15,15,55,18.30
2020,04,15,15,56,18.30
2020,04,15,15,57,18.30
2020,04,15,15,58,18.30
2020,04,15,15,59,18.30
2020,04,15,16,00,18.20
2020,04,15,16,01,18.30
2020,04,15,16,02,18.30
2020,04,15,16,03,18.30
2020,04,15,16,04,18.40
2020,04,15,16,05,18.50
2020,04,15,16,06,18.50
2020,04,15,16,07,18.50
2020,04,15,16,08,18.60
2020,04,15,16,09,18.60
2020,04,15,16,10,18.60
2020,04,15,16,11,18.60
2020,04,15,16,12,18.50
2020,04,15,16,13,18.40
2020,04,15,16,14,18.40
2020,04,15,16,15,18.40
2020,04,15,16,16,18.30
2020,04,15,16,17,18.30
2020,04,15,16,18,18.30
2020,04,15,16,19,18.30
2020,04,15,16,20,18.40
2020,04,15,16,21,18.40
2020,04,15,16,22,18.40
2020,04,15,16,23,18.40
2020,04,15,16,24,18.40
2020,04,15,16,25,18.40
2020,04,15,16,26,18.40
2020,04,15,16,27,18.40
2020,04,15,16,28,18.30
2020,04,15,16,29,18.30
2020,04,15,16,30,18.40
2020,04,15,16,31,18.40
2020,04,15,16,32,18.40
2020,04,15,16,33,18.40
2020,04,15,16,34,18.50
2020,04,15,16,35,18.50
2020,04,15,16,36,18.60
2020,04,15,16,37,18.60
2020,04,15,16,38,18.60
2020,04,15,16,39,18.60
2020,04,15,16,40,18.60
2020,04,15,16,41,18.50
2020,04,15,16,42,18.60
2020,04,15,16,43,18.50
2020,04,15,16,44,18.40
2020,04,15,16,45,18.30
2020,04,15,16,46,18.30
2020,04,15,16,47,18.30
2020,04,15,16,48,18.30
2020,04,15,16,49,18.30
2020,04,15,16,50,18.30
2020,04,15,16,51,18.40
2020,04,15,16,52,18.40
2020,04,15,16,53,18.40
2020,04,15,16,54,18.40
2020,04,15,16,55,18.40
2020,04,15,16,56,18.30
2020,04,15,16,57,18.30
2020,04,15,16,58,18.30
2020,04,15,16,59,18.30
2020,04,15,17,00,18.30
2020,04,15,17,01,18.30
2020,04,15,17,02,18.20
2020,04,15,17,03,18.10
2020,04,15,17,04,18.00
2020,04,15,17,05,17.90
2020,04,15,17,06,17.90
2020,04,15,17,07,17.80
2020,04,15,17,08,17.80
2020,04,15,17,09,17.70
2020,04,15,17,10,17.70
2020,04,15,17,11,17.70
2020,04,15,17,12,17.70
2020,04,15,17,13,17.70
2020,04,15,17,14,17.70
2020,04,15,17,15,17.70
2020,04,15,17,16,17.70
2020,04,15,17,17,17.70
2020,04,15,17,18,17.70
2020,04,15,17,19,17.70
2020,04,15,17,20,17.80
2020,04,15,17,21,17.80
2020,04,15,17,22,17.90
2020,04,15,17,23,17.90
2020,04,15,17,24,17.90
2020,04,15,17,25,17.90
2020,04,15,17,26,17.90
2020,04,15,17,27,17.90
2020,04,15,17,28,17.90
2020,04,15,17,29,17.90
2020,04,15,17,30,18.00
2020,04,15,17,31,18.00
2020,04,15,17,32,18.00
2020,04,15,17,33,18.10